User: anonymous   Login
Location: Newark
(35.8833°N, 14.5000°E)
Time: 16:33:48
(UTC+00:00)
Language:

Transit 2A - Orbit

View from above orbital plane
View from above orbital plane
View from above satellite
View from above satellite

Ground track
Ground track

The orbit data is extracted from the following two-line orbital elements,

1    45U 60007A   19325.23341002 -.00000042  00000-0  16171-4 0  9994
2    45  66.6945 212.2406 0248485 108.4919 254.3358 14.33656364 92717
Epoch (UTC): 21 November 2019 05:36:06
Eccentricity: 0.0248485
inclination: 66.6945°
perigee height: 601 km
apogee height: 957 km
right ascension of ascending node: 212.2406°
argument of perigee: 108.4919°
revolutions per day: 14.33656364
mean anomaly at epoch: 254.3358°
orbit number at epoch: 9271

The dashed part of the orbit path shows where the satellite is in the earth's shadow,  

DLR